GLV1103 SBNF-SBSP

Flight info

Callsign GLV1103
Flight time 0h 47m
Altitude 25000
Route KUBLO UM540 ANISE
Aircraft B738/M-SDE2E3FGHIRWXY/LB1

Departure

Time 2026-04-20 11:24
Airport Ministro Victor Konder International Airport (SBNF)

Arrival

Time 2026-04-20 12:11
Airport Congonhas–Deputado Freitas Nobre Airport (SBSP)
Time Latitude Longitude Altitude Speed Heading
2026-04-20 11:05 -26.88019 -48.64946 28 ft 0 kts 147°
2026-04-20 11:16 -26.88010 -48.64952 28 ft 4 kts 140°
2026-04-20 11:16 -26.87995 -48.64974 28 ft 4 kts 99°
2026-04-20 11:16 -26.87999 -48.64999 28 ft 2 kts 57°
2026-04-20 11:17 -26.87999 -48.65000 28 ft 1 kts 56°
2026-04-20 11:20 -26.87997 -48.64995 28 ft 3 kts 56°
2026-04-20 11:20 -26.87973 -48.64955 28 ft 9 kts 56°
2026-04-20 11:20 -26.87938 -48.64896 28 ft 9 kts 56°
2026-04-20 11:21 -26.87899 -48.64854 28 ft 7 kts
2026-04-20 11:21 -26.87855 -48.64879 30 ft 7 kts 329°
2026-04-20 11:21 -26.87804 -48.64869 30 ft 12 kts 50°
2026-04-20 11:21 -26.87738 -48.64764 32 ft 20 kts 54°
2026-04-20 11:22 -26.87640 -48.64606 30 ft 29 kts 57°
2026-04-20 11:22 -26.87534 -48.64425 27 ft 23 kts 56°
2026-04-20 11:22 -26.87447 -48.64365 24 ft 12 kts 14°
2026-04-20 11:22 -26.87438 -48.64296 23 ft 9 kts 148°
2026-04-20 11:23 -26.87464 -48.64312 23 ft 2 kts 236°
2026-04-20 11:23 -26.87480 -48.64339 26 ft 26 kts 236°
2026-04-20 11:23 -26.87747 -48.64777 31 ft 110 kts 236°
2026-04-20 11:23 -26.88312 -48.65691 306 ft 154 kts 236°
2026-04-20 11:24 -26.88929 -48.66667 1259 ft 156 kts 235°
2026-04-20 11:24 -26.89589 -48.67686 1986 ft 174 kts 237°
2026-04-20 11:24 -26.90323 -48.68927 2311 ft 208 kts 238°
2026-04-20 11:24 -26.91176 -48.70369 2583 ft 234 kts 237°
2026-04-20 11:25 -26.92381 -48.71647 3132 ft 250 kts 208°
2026-04-20 11:25 -26.94145 -48.72006 3627 ft 268 kts 173°
2026-04-20 11:25 -26.95877 -48.71236 4524 ft 272 kts 142°
2026-04-20 11:25 -26.97084 -48.69627 5536 ft 272 kts 120°
2026-04-20 11:26 -26.97940 -48.67713 6451 ft 276 kts 116°
2026-04-20 11:26 -26.98754 -48.65741 7244 ft 282 kts 116°
2026-04-20 11:26 -26.99399 -48.63646 8044 ft 290 kts 98°
2026-04-20 11:26 -26.99217 -48.61391 8645 ft 297 kts 71°
2026-04-20 11:27 -26.98168 -48.59378 9003 ft 303 kts 53°
2026-04-20 11:27 -26.96843 -48.57505 8987 ft 307 kts 51°
2026-04-20 11:27 -26.95504 -48.55658 8990 ft 304 kts 52°
2026-04-20 11:27 -26.94191 -48.53817 8994 ft 301 kts 52°
2026-04-20 11:28 -26.92898 -48.51983 8995 ft 300 kts 52°
2026-04-20 11:28 -26.91636 -48.50126 8997 ft 299 kts 54°
2026-04-20 11:28 -26.90405 -48.48249 9002 ft 299 kts 54°
2026-04-20 11:28 -26.89178 -48.46365 8997 ft 300 kts 55°
2026-04-20 11:29 -26.87947 -48.44476 9003 ft 301 kts 54°
2026-04-20 11:29 -26.86711 -48.42584 8999 ft 302 kts 54°
2026-04-20 11:29 -26.85469 -48.40685 9003 ft 302 kts 54°
2026-04-20 11:29 -26.84224 -48.38786 9001 ft 303 kts 54°
2026-04-20 11:30 -26.82974 -48.36882 8999 ft 304 kts 54°
2026-04-20 11:30 -26.81721 -48.34974 8999 ft 304 kts 54°
2026-04-20 11:30 -26.80468 -48.33068 8999 ft 304 kts 54°
2026-04-20 11:30 -26.79215 -48.31164 9002 ft 304 kts 54°
2026-04-20 11:31 -26.77962 -48.29259 9004 ft 303 kts 54°
2026-04-20 11:31 -26.76710 -48.27356 9001 ft 303 kts 54°
2026-04-20 11:31 -26.75461 -48.25459 9005 ft 303 kts 54°
2026-04-20 11:31 -26.74211 -48.23562 9006 ft 302 kts 54°
2026-04-20 11:32 -26.72966 -48.21673 9004 ft 302 kts 54°
2026-04-20 11:32 -26.71734 -48.19808 9003 ft 302 kts 54°
2026-04-20 11:32 -26.70213 -48.18147 9039 ft 305 kts 35°
2026-04-20 11:32 -26.68438 -48.16861 9632 ft 311 kts 32°
2026-04-20 11:33 -26.66598 -48.15573 10432 ft 315 kts 32°
2026-04-20 11:33 -26.64678 -48.14230 10721 ft 338 kts 32°
2026-04-20 11:33 -26.62627 -48.12786 11087 ft 355 kts 33°
2026-04-20 11:33 -26.60517 -48.11290 11728 ft 361 kts 33°
2026-04-20 11:34 -26.58383 -48.09770 12446 ft 366 kts 33°
2026-04-20 11:34 -26.56226 -48.08230 13139 ft 370 kts 33°
2026-04-20 11:34 -26.54043 -48.06668 13815 ft 376 kts 33°
2026-04-20 11:34 -26.51829 -48.05084 14430 ft 380 kts 34°
2026-04-20 11:35 -26.49593 -48.03484 15084 ft 383 kts 34°
2026-04-20 11:35 -26.47343 -48.01874 15735 ft 386 kts 34°
2026-04-20 11:35 -26.45075 -48.00252 16399 ft 388 kts 34°
2026-04-20 11:35 -26.42785 -47.98615 17037 ft 392 kts 34°
2026-04-20 11:36 -26.40506 -47.96987 17657 ft 395 kts 34°
2026-04-20 11:36 -26.38179 -47.95326 18278 ft 399 kts 34°
2026-04-20 11:36 -26.35831 -47.93650 18841 ft 402 kts 33°
2026-04-20 11:36 -26.33467 -47.91958 19363 ft 406 kts 34°
2026-04-20 11:37 -26.31130 -47.90162 19868 ft 410 kts 36°
2026-04-20 11:37 -26.26472 -47.86389 20931 ft 417 kts 37°
2026-04-20 11:37 -26.24119 -47.84478 21522 ft 418 kts 37°
2026-04-20 11:38 -26.21768 -47.82584 22197 ft 417 kts 36°
2026-04-20 11:38 -26.19415 -47.80698 22895 ft 415 kts 36°
2026-04-20 11:38 -26.17069 -47.78825 23557 ft 415 kts 36°
2026-04-20 11:38 -26.14722 -47.76953 24103 ft 415 kts 36°
2026-04-20 11:39 -26.12373 -47.75081 24679 ft 414 kts 36°
2026-04-20 11:39 -26.10029 -47.73216 25066 ft 414 kts 36°
2026-04-20 11:39 -26.07688 -47.71357 25093 ft 413 kts 36°
2026-04-20 11:39 -26.05356 -47.69506 25104 ft 412 kts 36°
2026-04-20 11:40 -26.03020 -47.67654 25116 ft 412 kts 36°
2026-04-20 11:40 -26.00685 -47.65803 25118 ft 412 kts 36°
2026-04-20 11:40 -25.98349 -47.63951 25121 ft 413 kts 36°
2026-04-20 11:40 -25.96007 -47.62095 25120 ft 413 kts 36°
2026-04-20 11:41 -25.93701 -47.60268 25119 ft 413 kts 36°
2026-04-20 11:41 -25.91358 -47.58414 25116 ft 413 kts 36°
2026-04-20 11:41 -25.89018 -47.56562 25112 ft 413 kts 36°
2026-04-20 11:41 -25.86649 -47.54688 25111 ft 413 kts 36°
2026-04-20 11:42 -25.84309 -47.52837 25110 ft 413 kts 36°
2026-04-20 11:42 -25.82003 -47.51015 25106 ft 412 kts 36°
2026-04-20 11:42 -25.79668 -47.49171 25110 ft 412 kts 36°
2026-04-20 11:42 -25.77306 -47.47306 25108 ft 411 kts 36°
2026-04-20 11:43 -25.75002 -47.45488 25110 ft 411 kts 36°
2026-04-20 11:43 -25.72673 -47.43651 25106 ft 411 kts 36°
2026-04-20 11:43 -25.70312 -47.41791 25107 ft 411 kts 36°
2026-04-20 11:43 -25.67984 -47.39956 25109 ft 410 kts 36°
2026-04-20 11:44 -25.65688 -47.38148 25109 ft 410 kts 36°
2026-04-20 11:44 -25.63361 -47.36317 25107 ft 410 kts 36°
2026-04-20 11:44 -25.61034 -47.34486 25113 ft 410 kts 36°
2026-04-20 11:44 -25.58710 -47.32658 25115 ft 410 kts 36°
2026-04-20 11:45 -25.56383 -47.30829 25108 ft 410 kts 36°
2026-04-20 11:45 -25.54049 -47.28996 25110 ft 410 kts 36°
2026-04-20 11:45 -25.51725 -47.27171 25113 ft 410 kts 36°
2026-04-20 11:45 -25.49393 -47.25341 25111 ft 410 kts 36°
2026-04-20 11:46 -25.47063 -47.23513 25111 ft 410 kts 36°
2026-04-20 11:46 -25.44734 -47.21686 25106 ft 411 kts 36°
2026-04-20 11:46 -25.42404 -47.19860 25110 ft 411 kts 36°
2026-04-20 11:46 -25.40073 -47.18034 25109 ft 411 kts 36°
2026-04-20 11:47 -25.37737 -47.16205 25109 ft 411 kts 36°
2026-04-20 11:47 -25.35404 -47.14380 25110 ft 411 kts 36°
2026-04-20 11:47 -25.33072 -47.12556 25112 ft 411 kts 36°
2026-04-20 11:47 -25.30762 -47.10750 25111 ft 411 kts 36°
2026-04-20 11:48 -25.28404 -47.08907 25109 ft 410 kts 36°
2026-04-20 11:48 -25.26069 -47.07083 25105 ft 410 kts 36°
2026-04-20 11:48 -25.23737 -47.05261 25107 ft 410 kts 36°
2026-04-20 11:48 -25.21408 -47.03444 25110 ft 410 kts 36°
2026-04-20 11:49 -25.19107 -47.01648 25112 ft 410 kts 36°
2026-04-20 11:49 -25.16778 -46.99832 25108 ft 410 kts 36°
2026-04-20 11:49 -25.14360 -46.97955 25106 ft 410 kts 35°
2026-04-20 11:49 -25.12054 -46.96314 25107 ft 410 kts 32°
2026-04-20 11:50 -25.09601 -46.94690 25110 ft 410 kts 31°
2026-04-20 11:50 -25.07137 -46.93103 25108 ft 410 kts 31°
2026-04-20 11:50 -25.04671 -46.91521 25110 ft 410 kts 31°
2026-04-20 11:50 -25.02209 -46.89933 25109 ft 410 kts 31°
2026-04-20 11:51 -24.99751 -46.88338 25109 ft 410 kts 31°
2026-04-20 11:51 -24.97298 -46.86738 25103 ft 408 kts 31°
2026-04-20 11:51 -24.94888 -46.85162 25090 ft 399 kts 31°
2026-04-20 11:51 -24.92517 -46.83610 25094 ft 394 kts 31°
2026-04-20 11:52 -24.90160 -46.82066 25107 ft 394 kts 31°
2026-04-20 11:52 -24.87800 -46.80520 25087 ft 396 kts 31°
2026-04-20 11:52 -24.85422 -46.78963 24798 ft 397 kts 31°
2026-04-20 11:52 -24.83062 -46.77419 24505 ft 394 kts 31°
2026-04-20 11:53 -24.80713 -46.75883 24159 ft 392 kts 31°
2026-04-20 11:53 -24.78365 -46.74349 23803 ft 391 kts 31°
2026-04-20 11:53 -24.76028 -46.72823 23386 ft 390 kts 31°
2026-04-20 11:53 -24.73733 -46.71324 22999 ft 388 kts 32°
2026-04-20 11:54 -24.71462 -46.69842 22628 ft 386 kts 32°
2026-04-20 11:54 -24.69158 -46.68339 22257 ft 384 kts 32°
2026-04-20 11:54 -24.66873 -46.66848 21895 ft 381 kts 32°
2026-04-20 11:54 -24.64627 -46.65385 21534 ft 379 kts 32°
2026-04-20 11:55 -24.62360 -46.63908 21172 ft 377 kts 32°
2026-04-20 11:55 -24.59988 -46.62708 20782 ft 376 kts 14°
2026-04-20 11:55 -24.57406 -46.62394 20473 ft 372 kts 359°
2026-04-20 11:55 -24.54828 -46.62407 20113 ft 370 kts 358°
2026-04-20 11:56 -24.53118 -46.62440 19873 ft 370 kts 358°
2026-04-20 11:56 -24.50547 -46.62490 19512 ft 369 kts 358°
2026-04-20 11:56 -24.47987 -46.62525 19164 ft 368 kts 358°
2026-04-20 11:56 -24.45427 -46.62544 18798 ft 367 kts 359°
2026-04-20 11:57 -24.42866 -46.62553 18441 ft 367 kts 359°
2026-04-20 11:57 -24.40316 -46.62560 18037 ft 366 kts 359°
2026-04-20 11:57 -24.37776 -46.62565 17668 ft 364 kts 359°
2026-04-20 11:57 -24.35248 -46.62566 17313 ft 362 kts 359°
2026-04-20 11:58 -24.32734 -46.62566 16971 ft 360 kts 359°
2026-04-20 11:58 -24.30242 -46.62567 16611 ft 358 kts 359°
2026-04-20 11:58 -24.27749 -46.62569 16262 ft 357 kts 359°
2026-04-20 11:58 -24.25268 -46.62570 15908 ft 355 kts 359°
2026-04-20 11:59 -24.22800 -46.62572 15562 ft 354 kts 359°
2026-04-20 11:59 -24.20339 -46.62573 15211 ft 353 kts 359°
2026-04-20 11:59 -24.17902 -46.62574 14846 ft 346 kts 359°
2026-04-20 11:59 -24.15508 -46.62575 14509 ft 343 kts 359°
2026-04-20 12:00 -24.13115 -46.62577 14163 ft 343 kts 359°
2026-04-20 12:00 -24.10726 -46.62578 13811 ft 343 kts 359°
2026-04-20 12:00 -24.08374 -46.62580 13454 ft 342 kts 359°
2026-04-20 12:00 -24.05997 -46.62582 13097 ft 341 kts 359°
2026-04-20 12:01 -24.03631 -46.62583 12758 ft 339 kts 359°
2026-04-20 12:01 -24.01284 -46.62585 12413 ft 335 kts 360°
2026-04-20 12:01 -23.98975 -46.62586 12057 ft 326 kts 360°
2026-04-20 12:01 -23.96734 -46.62588 11744 ft 318 kts 360°
2026-04-20 12:02 -23.94545 -46.62589 11424 ft 313 kts 360°
2026-04-20 12:02 -23.92370 -46.62591 11128 ft 312 kts 360°
2026-04-20 12:02 -23.90202 -46.62593 10831 ft 311 kts 360°
2026-04-20 12:02 -23.88039 -46.62594 10522 ft 311 kts
2026-04-20 12:03 -23.85897 -46.62749 10314 ft 305 kts 345°
2026-04-20 12:03 -23.83998 -46.63666 10201 ft 295 kts 326°
2026-04-20 12:03 -23.82283 -46.64872 9943 ft 293 kts 325°
2026-04-20 12:03 -23.80574 -46.66089 9642 ft 293 kts 326°
2026-04-20 12:04 -23.78866 -46.67292 9346 ft 292 kts 326°
2026-04-20 12:04 -23.77159 -46.68487 9216 ft 291 kts 326°
2026-04-20 12:04 -23.75445 -46.69681 9206 ft 293 kts 326°
2026-04-20 12:04 -23.73729 -46.70872 9212 ft 291 kts 326°
2026-04-20 12:05 -23.72021 -46.72057 9199 ft 291 kts 326°
2026-04-20 12:05 -23.70289 -46.73259 8880 ft 299 kts 326°
2026-04-20 12:05 -23.68530 -46.74479 8570 ft 300 kts 327°
2026-04-20 12:05 -23.66780 -46.75691 8203 ft 295 kts 327°
2026-04-20 12:06 -23.65083 -46.76865 7889 ft 289 kts 327°
2026-04-20 12:06 -23.64464 -46.77294 7768 ft 287 kts 327°
2026-04-20 12:06 -23.62785 -46.78457 7308 ft 290 kts 327°
2026-04-20 12:06 -23.61067 -46.79648 6943 ft 294 kts 328°
2026-04-20 12:07 -23.59257 -46.80690 6565 ft 294 kts 344°
2026-04-20 12:07 -23.57267 -46.80867 6211 ft 285 kts 12°
2026-04-20 12:07 -23.55467 -46.80107 5902 ft 274 kts 36°
2026-04-20 12:07 -23.54109 -46.78732 5592 ft 263 kts 56°
2026-04-20 12:08 -23.53110 -46.77096 5314 ft 255 kts 60°
2026-04-20 12:08 -23.52212 -46.75508 5216 ft 237 kts 67°
2026-04-20 12:08 -23.51925 -46.73837 4884 ft 218 kts 106°
2026-04-20 12:08 -23.52660 -46.72563 4742 ft 195 kts 145°
2026-04-20 12:09 -23.53797 -46.71839 4513 ft 184 kts 148°
2026-04-20 12:09 -23.54845 -46.71096 4298 ft 176 kts 146°
2026-04-20 12:09 -23.55876 -46.70370 4070 ft 177 kts 147°
2026-04-20 12:09 -23.56917 -46.69647 3857 ft 176 kts 147°
2026-04-20 12:10 -23.57928 -46.68945 3633 ft 169 kts 147°
2026-04-20 12:10 -23.58876 -46.68283 3447 ft 160 kts 146°
2026-04-20 12:10 -23.59800 -46.67642 3227 ft 155 kts 147°
2026-04-20 12:10 -23.60682 -46.67026 3023 ft 145 kts 146°
2026-04-20 12:11 -23.61518 -46.66440 2776 ft 141 kts 147°
2026-04-20 12:11 -23.62319 -46.65883 2600 ft 128 kts 146°
2026-04-20 12:11 -23.62769 -46.65574 2607 ft 29 kts 148°
2026-04-20 12:11 -23.62877 -46.65505 2607 ft 13 kts 166°
2026-04-20 12:12 -23.62927 -46.65568 2602 ft 13 kts 284°
2026-04-20 12:12 -23.62877 -46.65610 2602 ft 7 kts 330°
2026-04-20 12:12 -23.62835 -46.65635 2602 ft 7 kts 331°
2026-04-20 12:12 -23.62795 -46.65662 2602 ft 7 kts 326°
2026-04-20 12:13 -23.62754 -46.65692 2602 ft 8 kts 327°
2026-04-20 12:13 -23.62695 -46.65734 2601 ft 12 kts 327°
2026-04-20 12:13 -23.62618 -46.65788 2601 ft 13 kts 327°
2026-04-20 12:13 -23.62567 -46.65823 2601 ft 6 kts 324°
2026-04-20 12:14 -23.62570 -46.65855 2600 ft 5 kts 239°
2026-04-20 12:14 -23.62588 -46.65887 2600 ft 4 kts 237°
2026-04-20 12:14 -23.62597 -46.65902 2600 ft 1 kts 237°
2026-04-20 12:14 -23.62598 -46.65903 2600 ft 0 kts 237°